Shishmaref, AK

9:09 AM AKDT on October 19, 2017 (GMT -0800)
New Shishmaref

Weather History for PASH - February, 2013

Change the Weather History Date:

Tuesday, February 19, 2013

  Actual Average Record
Temperature  
Mean Temperature -18 °F -  
Max Temperature -11 °F 2 °F 28 °F (2006)
Min Temperature -25 °F -4 °F -29 °F (2002)
Degree Days  
Heating Degree Days 83    
Moisture  
Dew Point -24 °F    
Average Humidity 66    
Maximum Humidity 100    
Minimum Humidity 44    
Precipitation  
Precipitation 0.00 in - - ()
Sea Level Pressure  
Sea Level Pressure 30.03 in    
Wind  
Wind Speed 13 mph (ENE)    
Max Wind Speed 20 mph    
Max Gust Speed 24 mph    
Visibility 8 miles    
Events      
Averages and records for this station are not official NWS values.
T = Trace of Precipitation, MM = Missing Value Source: NWS Daily Summary

Daily Weather History Graph

Daily Weather History Graph

Search for Another Location

Airport or City:

Trip Planner

Search our weather history database for the weather conditions in past years. The results will help you decide how hot, cold, wet, or windy it might be!

Date:

Astronomy

Feb. 19, 2013 Rise Set
Actual Time 9:53 AM AKST 6:43 PM AKST
Civil Twilight 8:59 AM AKST 7:38 PM AKST
Nautical Twilight 7:59 AM AKST 8:38 PM AKST
Astronomical Twilight 6:59 AM AKST 9:39 PM AKST
Moon 11:43 AM AKST 7:18 AM AKST
Length of Visible Light 10h 39m
Length of Day
8h 49m
Waxing Gibbous, 69% of the Moon is Illuminated
Feb 19
Waxing Gibbous
Feb 25
Full
Mar 4
Last Quarter
Mar 11
New
Mar 19
First Quarter

Hourly Weather History & Observations

Time (AKST) Temp. Windchill Dew Point Humidity Pressure Visibility Wind Dir Wind Speed Gust Speed Precip Events Conditions
12:16 AM -25.6 °F -43.8 °F - N/A% 30.25 in 9.0 mi East 6.9 mph - N/A   Clear
12:36 AM -25.6 °F -50.2 °F -27.4 °F 91% 30.21 in 10.0 mi ENE 12.7 mph - N/A   Clear
12:56 AM -23.8 °F -48.9 °F - N/A% 30.20 in 5.0 mi ENE 13.8 mph - N/A   Clear
1:16 AM -23.8 °F -48.9 °F -27.4 °F 83% 30.20 in 5.0 mi ENE 13.8 mph - N/A   Clear
1:36 AM -23.8 °F -48.9 °F - N/A% 30.20 in 9.0 mi East 13.8 mph - N/A   Clear
1:56 AM -22.0 °F -46.6 °F -27.4 °F 76% 30.19 in 9.0 mi ENE 13.8 mph - N/A   Clear
2:16 AM -22.0 °F -46.6 °F - N/A% 30.18 in 10.0 mi ENE 13.8 mph - N/A   Clear
2:36 AM -20.2 °F -44.4 °F -27.4 °F 69% 30.17 in 7.0 mi ENE 13.8 mph - N/A   Clear
2:56 AM -23.8 °F -48.9 °F - N/A% 30.15 in 5.0 mi ENE 13.8 mph - N/A   Clear
3:16 AM -22.0 °F -48.4 °F - N/A% 30.14 in 3.0 mi ENE 16.1 mph - N/A   Clear
3:36 AM -20.2 °F -46.0 °F -25.6 °F 76% 30.13 in 3.0 mi ENE 16.1 mph - N/A   Clear
3:56 AM -20.2 °F -46.8 °F - N/A% 30.12 in 3.0 mi ENE 17.3 mph - N/A   Clear
4:16 AM -20.2 °F -47.5 °F -20.2 °F 100% 30.11 in 3.0 mi ENE 18.4 mph - N/A   Clear
4:36 AM -18.4 °F -45.9 °F - N/A% 30.10 in 2.5 mi ENE 19.6 mph - N/A   Clear
4:56 AM -18.4 °F -44.5 °F -18.4 °F 100% 30.09 in 3.0 mi ENE 17.3 mph - N/A   Clear
5:16 AM -16.6 °F -41.4 °F - N/A% 30.09 in 3.0 mi ENE 16.1 mph - N/A   Clear
5:36 AM -16.6 °F -42.1 °F -16.6 °F 100% 30.08 in 5.0 mi ENE 17.3 mph - N/A   Clear
5:56 AM -14.8 °F -39.1 °F - N/A% 30.08 in 4.0 mi ENE 16.1 mph - N/A   Clear
6:16 AM -14.8 °F -41.2 °F - N/A% 30.08 in 2.0 mi East 19.6 mph 24.2 mph N/A   Clear
6:36 AM -13.0 °F -38.2 °F - N/A% 30.08 in 1.0 mi East 18.4 mph - N/A   Clear
6:56 AM -14.8 °F -39.1 °F - N/A% 30.06 in 6.0 mi ENE 16.1 mph - N/A   Clear
7:16 AM -14.8 °F -39.1 °F - N/A% 30.06 in 6.0 mi ENE 16.1 mph - N/A   Clear
7:36 AM -14.8 °F -41.2 °F - N/A% 30.05 in 5.0 mi East 19.6 mph - N/A   Clear
7:56 AM -11.2 °F -34.4 °F - N/A% 30.06 in 1.5 mi East 16.1 mph 24.2 mph N/A   Clear
8:16 AM -11.2 °F -34.4 °F - N/A% 30.08 in 1.5 mi East 16.1 mph - N/A   Clear
8:36 AM -11.2 °F -33.7 °F - N/A% 30.08 in 10.0 mi East 15.0 mph - N/A   Clear
8:56 AM -11.2 °F -33.7 °F - N/A% 30.09 in 3.0 mi East 15.0 mph - N/A   Clear
9:16 AM -13.0 °F -34.3 °F - N/A% 30.08 in 10.0 mi East 12.7 mph - N/A   Clear
9:36 AM -13.0 °F -33.4 °F - N/A% 30.10 in 9.0 mi East 11.5 mph - N/A   Clear
9:56 AM -11.2 °F -32.9 °F - N/A% 30.09 in 10.0 mi East 13.8 mph - N/A   Clear
10:16 AM -11.2 °F -33.7 °F - N/A% 30.07 in 10.0 mi East 15.0 mph - N/A   Clear
10:36 AM -13.0 °F -34.3 °F -29.2 °F 44% 30.06 in 10.0 mi ENE 12.7 mph - N/A   Clear
10:56 AM -14.8 °F -39.1 °F - N/A% 30.04 in 10.0 mi ENE 16.1 mph - N/A   Clear
11:16 AM -14.8 °F -39.1 °F - N/A% 30.02 in 5.0 mi ENE 16.1 mph - N/A   Clear
11:36 AM -11.2 °F -35.8 °F -27.4 °F 45% 30.02 in 4.0 mi ENE 18.4 mph 23.0 mph N/A   Clear
11:56 AM -11.2 °F -34.4 °F -27.4 °F 45% 30.02 in 10.0 mi ENE 16.1 mph - N/A   Clear
12:16 PM -11.2 °F -34.4 °F -25.6 °F 49% 30.01 in 10.0 mi ENE 16.1 mph - N/A   Clear
12:36 PM -11.2 °F -34.4 °F -23.8 °F 54% 30.00 in 10.0 mi ENE 16.1 mph - N/A   Clear
12:56 PM -11.2 °F -33.7 °F -23.8 °F 54% 30.01 in 10.0 mi East 15.0 mph - N/A   Clear
1:16 PM -11.2 °F -32.9 °F -20.2 °F 64% 30.01 in 10.0 mi ENE 13.8 mph - N/A   Clear
1:36 PM -11.2 °F -33.7 °F -22.0 °F 59% 30.00 in 10.0 mi ENE 15.0 mph - N/A   Clear
1:56 PM -11.2 °F -32.9 °F -20.2 °F 64% 29.99 in 9.0 mi ENE 13.8 mph - N/A   Clear
2:16 PM -11.2 °F -32.9 °F -22.0 °F 59% 29.98 in 10.0 mi ENE 13.8 mph - N/A   Clear
3:36 PM -11.2 °F -33.7 °F -20.2 °F 64% 29.96 in 10.0 mi ENE 15.0 mph - N/A   Clear
3:56 PM -11.2 °F -32.9 °F -20.2 °F 64% 29.97 in 10.0 mi ENE 13.8 mph - N/A   Clear
4:16 PM -11.2 °F -30.1 °F -20.2 °F 64% 29.96 in 10.0 mi ENE 10.4 mph - N/A   Clear
4:36 PM -13.0 °F -32.4 °F -25.6 °F 53% 29.96 in 10.0 mi ENE 10.4 mph - N/A   Clear
4:56 PM -14.8 °F -34.6 °F -23.8 °F 64% 29.96 in 10.0 mi ENE 10.4 mph - N/A   Clear
5:16 PM -14.8 °F -33.5 °F -23.8 °F 64% 29.96 in 10.0 mi NE 9.2 mph - N/A   Clear
5:36 PM -14.8 °F -34.6 °F -25.6 °F 58% 29.95 in 10.0 mi NE 10.4 mph - N/A   Clear
5:56 PM -16.6 °F -36.8 °F -25.6 °F 64% 29.95 in 10.0 mi NE 10.4 mph - N/A   Clear
6:16 PM -16.6 °F -35.7 °F -25.6 °F 64% 29.94 in 10.0 mi NE 9.2 mph - N/A   Clear
6:36 PM -16.6 °F -37.9 °F -23.8 °F 70% 29.94 in 10.0 mi NE 11.5 mph - N/A   Clear
6:56 PM -16.6 °F -35.7 °F -25.6 °F 64% 29.94 in 10.0 mi NE 9.2 mph - N/A   Clear
7:16 PM -16.6 °F -35.7 °F -23.8 °F 70% 29.94 in 10.0 mi NNE 9.2 mph - N/A   Clear
7:36 PM -16.6 °F -35.7 °F -27.4 °F 58% 29.94 in 10.0 mi NNE 9.2 mph - N/A   Clear
7:56 PM -16.6 °F -36.8 °F -25.6 °F 64% 29.93 in 10.0 mi NNE 10.4 mph - N/A   Clear
8:16 PM -16.6 °F -36.8 °F -20.2 °F 84% 29.92 in 10.0 mi NE 10.4 mph - N/A   Clear
8:36 PM -16.6 °F -36.8 °F -29.2 °F 53% 29.92 in 10.0 mi NE 10.4 mph - N/A   Clear
8:56 PM -16.6 °F -35.7 °F -25.6 °F 64% 29.91 in 10.0 mi NE 9.2 mph - N/A   Clear
9:16 PM -16.6 °F -36.8 °F -25.6 °F 64% 29.90 in 10.0 mi NNE 10.4 mph - N/A   Clear
9:36 PM -16.6 °F -37.9 °F -25.6 °F 64% 29.90 in 10.0 mi NNE 11.5 mph - N/A   Clear
9:56 PM -16.6 °F -35.7 °F -25.6 °F 64% 29.89 in 10.0 mi NNE 9.2 mph - N/A   Clear
10:16 PM -16.6 °F -37.9 °F -25.6 °F 64% 29.88 in 10.0 mi NNE 11.5 mph - N/A   Clear
10:36 PM -16.6 °F -36.8 °F -25.6 °F 64% 29.87 in 10.0 mi NE 10.4 mph - N/A   Clear
10:56 PM -16.6 °F -36.8 °F -27.4 °F 58% 29.87 in 10.0 mi NNE 10.4 mph - N/A   Clear
11:16 PM -18.4 °F -39.1 °F -27.4 °F 63% 29.86 in 10.0 mi NE 10.4 mph - N/A   Clear
11:36 PM -16.6 °F -36.8 °F -23.8 °F 70% 29.86 in 10.0 mi NE 10.4 mph - N/A   Clear
11:56 PM -16.6 °F -32.9 °F -25.6 °F 64% 29.88 in 10.0 mi East 6.9 mph - N/A   Clear